Time,TemperatureF,DewpointF,PressureIn,WindDirection,WindDirectionDegrees,WindSpeedMPH,WindSpeedGustMPH,Humidity,HourlyPrecipIn,Conditions,Clouds,dailyrainin,SoftwareType,DateUTC
2013-04-19 00:01:00,66.0,21.0,-100.00,North,-999,-999.0,-999.0,18,-99.99,,,-99.99,,2013-04-19 00:01:00,
2013-04-19 00:12:00,66.0,21.0,-100.00,North,-999,-999.0,-999.0,18,-99.99,,,-99.99,,2013-04-19 00:12:00,
2013-04-19 00:21:00,66.0,21.0,-100.00,North,-999,-999.0,-999.0,18,-99.99,,,-99.99,,2013-04-19 00:21:00,
2013-04-19 00:31:00,66.0,23.0,-100.00,North,-999,-999.0,-999.0,19,-99.99,,,-99.99,,2013-04-19 00:31:00,
2013-04-19 00:42:00,66.0,23.0,-100.00,North,-999,-999.0,-999.0,19,-99.99,,,-99.99,,2013-04-19 00:42:00,
2013-04-19 00:51:00,66.0,23.0,-100.00,North,-999,-999.0,-999.0,19,-99.99,,,-99.99,,2013-04-19 00:51:00,
2013-04-19 01:01:00,65.0,23.0,-100.00,North,-999,-999.0,-999.0,20,-99.99,,,-99.99,,2013-04-19 01:01:00,
2013-04-19 01:11:00,65.0,23.0,-100.00,North,-999,-999.0,-999.0,20,-99.99,,,-99.99,,2013-04-19 01:11:00,
2013-04-19 01:21:00,65.0,23.0,-100.00,North,-999,-999.0,-999.0,20,-99.99,,,-99.99,,2013-04-19 01:21:00,
2013-04-19 01:31:00,65.0,23.0,-100.00,North,-999,-999.0,-999.0,20,-99.99,,,-99.99,,2013-04-19 01:31:00,
2013-04-19 02:01:00,61.0,24.0,-100.00,North,-999,-999.0,-999.0,24,-99.99,,,-99.99,,2013-04-19 02:01:00,
2013-04-19 02:11:00,61.0,24.0,-100.00,North,-999,-999.0,-999.0,24,-99.99,,,-99.99,,2013-04-19 02:11:00,
2013-04-19 02:21:00,61.0,24.0,-100.00,North,-999,-999.0,-999.0,24,-99.99,,,-99.99,,2013-04-19 02:21:00,
2013-04-19 02:31:00,61.0,24.0,-100.00,North,-999,-999.0,-999.0,24,-99.99,,,-99.99,,2013-04-19 02:31:00,
2013-04-19 03:01:00,55.0,24.0,-100.00,North,-999,-999.0,-999.0,30,-99.99,,,-99.99,,2013-04-19 03:01:00,
2013-04-19 03:11:00,55.0,24.0,-100.00,North,-999,-999.0,-999.0,30,-99.99,,,-99.99,,2013-04-19 03:11:00,
2013-04-19 03:21:00,55.0,24.0,-100.00,North,-999,-999.0,-999.0,30,-99.99,,,-99.99,,2013-04-19 03:21:00,
2013-04-19 03:32:00,51.0,24.0,-100.00,North,-999,-999.0,-999.0,35,-99.99,,,-99.99,,2013-04-19 03:32:00,
2013-04-19 03:43:00,51.0,24.0,-100.00,North,-999,-999.0,-999.0,35,-99.99,,,-99.99,,2013-04-19 03:43:00,
2013-04-19 03:53:00,51.0,24.0,-100.00,North,-999,-999.0,-999.0,35,-99.99,,,-99.99,,2013-04-19 03:53:00,
2013-04-19 04:03:00,46.0,23.0,-100.00,North,-999,-999.0,-999.0,40,-99.99,,,-99.99,,2013-04-19 04:03:00,
2013-04-19 04:13:00,46.0,23.0,-100.00,North,-999,-999.0,-999.0,40,-99.99,,,-99.99,,2013-04-19 04:13:00,
2013-04-19 04:23:00,46.0,23.0,-100.00,North,-999,-999.0,-999.0,40,-99.99,,,-99.99,,2013-04-19 04:23:00,
2013-04-19 04:32:00,44.0,21.0,-100.00,North,-999,-999.0,-999.0,40,-99.99,,,-99.99,,2013-04-19 04:32:00,
2013-04-19 04:43:00,44.0,21.0,-100.00,North,-999,-999.0,-999.0,40,-99.99,,,-99.99,,2013-04-19 04:43:00,
2013-04-19 04:52:00,44.0,21.0,-100.00,North,-999,-999.0,-999.0,40,-99.99,,,-99.99,,2013-04-19 04:52:00,
2013-04-19 05:02:00,41.0,22.0,-100.00,North,-999,-999.0,-999.0,47,-99.99,,,-99.99,,2013-04-19 05:02:00,
2013-04-19 05:11:00,41.0,22.0,-100.00,North,-999,-999.0,-999.0,47,-99.99,,,-99.99,,2013-04-19 05:11:00,
2013-04-19 05:22:00,41.0,22.0,-100.00,North,-999,-999.0,-999.0,47,-99.99,,,-99.99,,2013-04-19 05:22:00,
2013-04-19 05:31:00,39.0,20.0,-100.00,North,-999,-999.0,-999.0,47,-99.99,,,-99.99,,2013-04-19 05:31:00,
2013-04-19 05:42:00,39.0,20.0,-100.00,North,-999,-999.0,-999.0,47,-99.99,,,-99.99,,2013-04-19 05:42:00,
2013-04-19 05:52:00,39.0,20.0,-100.00,North,-999,-999.0,-999.0,47,-99.99,,,-99.99,,2013-04-19 05:52:00,
2013-04-19 06:01:00,39.0,20.0,-100.00,North,-999,-999.0,-999.0,47,-99.99,,,-99.99,,2013-04-19 06:01:00,
2013-04-19 06:32:00,36.0,20.0,-100.00,North,-999,-999.0,-999.0,52,-99.99,,,-99.99,,2013-04-19 06:32:00,
2013-04-19 06:42:00,36.0,20.0,-100.00,North,-999,-999.0,-999.0,52,-99.99,,,-99.99,,2013-04-19 06:42:00,
2013-04-19 06:53:00,36.0,20.0,-100.00,North,-999,-999.0,-999.0,52,-99.99,,,-99.99,,2013-04-19 06:53:00,
2013-04-19 07:01:00,34.0,20.0,-100.00,North,-999,-999.0,-999.0,55,-99.99,,,-99.99,,2013-04-19 07:01:00,
2013-04-19 07:12:00,34.0,20.0,-100.00,North,-999,-999.0,-999.0,55,-99.99,,,-99.99,,2013-04-19 07:12:00,
2013-04-19 07:31:00,35.0,20.0,-100.00,North,-999,-999.0,-999.0,55,-99.99,,,-99.99,,2013-04-19 07:31:00,
2013-04-19 07:42:00,35.0,20.0,-100.00,North,-999,-999.0,-999.0,55,-99.99,,,-99.99,,2013-04-19 07:42:00,
2013-04-19 08:02:00,34.0,20.0,-100.00,North,-999,-999.0,-999.0,56,-99.99,,,-99.99,,2013-04-19 08:02:00,
2013-04-19 08:12:00,34.0,20.0,-100.00,North,-999,-999.0,-999.0,56,-99.99,,,-99.99,,2013-04-19 08:12:00,
2013-04-19 08:21:00,34.0,20.0,-100.00,North,-999,-999.0,-999.0,56,-99.99,,,-99.99,,2013-04-19 08:21:00,
2013-04-19 08:32:00,34.0,20.0,-100.00,North,-999,-999.0,-999.0,56,-99.99,,,-99.99,,2013-04-19 08:32:00,
2013-04-19 09:01:00,32.0,19.0,-100.00,North,-999,-999.0,-999.0,59,-99.99,,,-99.99,,2013-04-19 09:01:00,
2013-04-19 09:11:00,32.0,19.0,-100.00,North,-999,-999.0,-999.0,59,-99.99,,,-99.99,,2013-04-19 09:11:00,
2013-04-19 09:21:00,32.0,19.0,-100.00,North,-999,-999.0,-999.0,59,-99.99,,,-99.99,,2013-04-19 09:21:00,
2013-04-19 09:32:00,32.0,20.0,-100.00,North,-999,-999.0,-999.0,60,-99.99,,,-99.99,,2013-04-19 09:32:00,
2013-04-19 09:43:00,32.0,20.0,-100.00,North,-999,-999.0,-999.0,60,-99.99,,,-99.99,,2013-04-19 09:43:00,
2013-04-19 09:52:00,32.0,20.0,-100.00,North,-999,-999.0,-999.0,60,-99.99,,,-99.99,,2013-04-19 09:52:00,
2013-04-19 10:02:00,30.0,19.0,-100.00,North,-999,-999.0,-999.0,63,-99.99,,,-99.99,,2013-04-19 10:02:00,
2013-04-19 10:13:00,30.0,19.0,-100.00,North,-999,-999.0,-999.0,63,-99.99,,,-99.99,,2013-04-19 10:13:00,
2013-04-19 10:23:00,30.0,19.0,-100.00,North,-999,-999.0,-999.0,63,-99.99,,,-99.99,,2013-04-19 10:23:00,
2013-04-19 10:33:00,29.0,18.0,-100.00,North,-999,-999.0,-999.0,64,-99.99,,,-99.99,,2013-04-19 10:33:00,
2013-04-19 10:42:00,29.0,18.0,-100.00,North,-999,-999.0,-999.0,64,-99.99,,,-99.99,,2013-04-19 10:42:00,
2013-04-19 10:52:00,29.0,18.0,-100.00,North,-999,-999.0,-999.0,64,-99.99,,,-99.99,,2013-04-19 10:52:00,
2013-04-19 11:02:00,28.0,18.0,-100.00,North,-999,-999.0,-999.0,66,-99.99,,,-99.99,,2013-04-19 11:02:00,
2013-04-19 11:11:00,28.0,18.0,-100.00,North,-999,-999.0,-999.0,66,-99.99,,,-99.99,,2013-04-19 11:11:00,
2013-04-19 11:22:00,28.0,18.0,-100.00,North,-999,-999.0,-999.0,66,-99.99,,,-99.99,,2013-04-19 11:22:00,
2013-04-19 11:32:00,28.0,18.0,-100.00,North,-999,-999.0,-999.0,66,-99.99,,,-99.99,,2013-04-19 11:32:00,
2013-04-19 11:43:00,28.0,18.0,-100.00,North,-999,-999.0,-999.0,66,-99.99,,,-99.99,,2013-04-19 11:43:00,
2013-04-19 11:52:00,28.0,18.0,-100.00,North,-999,-999.0,-999.0,66,-99.99,,,-99.99,,2013-04-19 11:52:00,
2013-04-19 12:02:00,27.0,18.0,-100.00,North,-999,-999.0,-999.0,68,-99.99,,,-99.99,,2013-04-19 12:02:00,
2013-04-19 12:12:00,27.0,18.0,-100.00,North,-999,-999.0,-999.0,68,-99.99,,,-99.99,,2013-04-19 12:12:00,
2013-04-19 12:22:00,27.0,18.0,-100.00,North,-999,-999.0,-999.0,68,-99.99,,,-99.99,,2013-04-19 12:22:00,
2013-04-19 12:32:00,27.0,19.0,-100.00,North,-999,-999.0,-999.0,70,-99.99,,,-99.99,,2013-04-19 12:32:00,
2013-04-19 13:01:00,26.0,18.0,-100.00,North,-999,-999.0,-999.0,70,-99.99,,,-99.99,,2013-04-19 13:01:00,
2013-04-19 13:11:00,26.0,18.0,-100.00,North,-999,-999.0,-999.0,70,-99.99,,,-99.99,,2013-04-19 13:11:00,
2013-04-19 13:32:00,26.0,17.0,-100.00,North,-999,-999.0,-999.0,69,-99.99,,,-99.99,,2013-04-19 13:32:00,
2013-04-19 13:52:00,26.0,17.0,-100.00,North,-999,-999.0,-999.0,69,-99.99,,,-99.99,,2013-04-19 13:52:00,
2013-04-19 14:01:00,26.0,18.0,-100.00,North,-999,-999.0,-999.0,71,-99.99,,,-99.99,,2013-04-19 14:01:00,
2013-04-19 14:11:00,26.0,18.0,-100.00,North,-999,-999.0,-999.0,71,-99.99,,,-99.99,,2013-04-19 14:11:00,
2013-04-19 14:21:00,26.0,18.0,-100.00,North,-999,-999.0,-999.0,71,-99.99,,,-99.99,,2013-04-19 14:21:00,
2013-04-19 14:31:00,27.0,19.0,-100.00,North,-999,-999.0,-999.0,70,-99.99,,,-99.99,,2013-04-19 14:31:00,
2013-04-19 14:43:00,27.0,19.0,-100.00,North,-999,-999.0,-999.0,70,-99.99,,,-99.99,,2013-04-19 14:43:00,
2013-04-19 14:52:00,27.0,19.0,-100.00,North,-999,-999.0,-999.0,70,-99.99,,,-99.99,,2013-04-19 14:52:00,
2013-04-19 15:01:00,29.0,19.0,-100.00,North,-999,-999.0,-999.0,66,-99.99,,,-99.99,,2013-04-19 15:01:00,
2013-04-19 15:12:00,29.0,19.0,-100.00,North,-999,-999.0,-999.0,66,-99.99,,,-99.99,,2013-04-19 15:12:00,
2013-04-19 15:21:00,29.0,19.0,-100.00,North,-999,-999.0,-999.0,66,-99.99,,,-99.99,,2013-04-19 15:21:00,
2013-04-19 15:33:00,44.0,21.0,-100.00,North,-999,-999.0,-999.0,39,-99.99,,,-99.99,,2013-04-19 15:33:00,
2013-04-19 15:43:00,44.0,21.0,-100.00,North,-999,-999.0,-999.0,39,-99.99,,,-99.99,,2013-04-19 15:43:00,
2013-04-19 15:52:00,44.0,21.0,-100.00,North,-999,-999.0,-999.0,39,-99.99,,,-99.99,,2013-04-19 15:52:00,
2013-04-19 16:03:00,55.0,22.0,-100.00,North,-999,-999.0,-999.0,27,-99.99,,,-99.99,,2013-04-19 16:03:00,
2013-04-19 16:12:00,55.0,22.0,-100.00,North,-999,-999.0,-999.0,27,-99.99,,,-99.99,,2013-04-19 16:12:00,
2013-04-19 16:23:00,55.0,22.0,-100.00,North,-999,-999.0,-999.0,27,-99.99,,,-99.99,,2013-04-19 16:23:00,
2013-04-19 16:33:00,64.0,-99.9,-100.00,North,-999,-999.0,-999.0,-999,-99.99,,,-99.99,,2013-04-19 16:33:00,
2013-04-19 16:53:00,64.0,-99.9,-100.00,North,-999,-999.0,-999.0,-999,-99.99,,,-99.99,,2013-04-19 16:53:00,
2013-04-19 17:02:00,64.0,-99.9,-100.00,North,-999,-999.0,-999.0,-999,-99.99,,,-99.99,,2013-04-19 17:02:00,
2013-04-19 17:33:00,71.0,14.0,-100.00,North,-999,-999.0,-999.0,11,-99.99,,,-99.99,,2013-04-19 17:33:00,
2013-04-19 17:43:00,71.0,14.0,-100.00,North,-999,-999.0,-999.0,11,-99.99,,,-99.99,,2013-04-19 17:43:00,
2013-04-19 17:52:00,71.0,14.0,-100.00,North,-999,-999.0,-999.0,11,-99.99,,,-99.99,,2013-04-19 17:52:00,
2013-04-19 18:01:00,74.0,16.0,-100.00,North,-999,-999.0,-999.0,11,-99.99,,,-99.99,,2013-04-19 18:01:00,
2013-04-19 18:13:00,74.0,16.0,-100.00,North,-999,-999.0,-999.0,11,-99.99,,,-99.99,,2013-04-19 18:13:00,
2013-04-19 18:22:00,74.0,16.0,-100.00,North,-999,-999.0,-999.0,11,-99.99,,,-99.99,,2013-04-19 18:22:00,
2013-04-19 18:32:00,72.0,18.0,-100.00,North,-999,-999.0,-999.0,13,-99.99,,,-99.99,,2013-04-19 18:32:00,
2013-04-19 18:43:00,72.0,18.0,-100.00,North,-999,-999.0,-999.0,13,-99.99,,,-99.99,,2013-04-19 18:43:00,
2013-04-19 18:52:00,72.0,18.0,-100.00,North,-999,-999.0,-999.0,13,-99.99,,,-99.99,,2013-04-19 18:52:00,
2013-04-19 19:01:00,72.0,18.0,-100.00,North,-999,-999.0,-999.0,13,-99.99,,,-99.99,,2013-04-19 19:01:00,
2013-04-19 19:32:00,74.0,20.0,-100.00,North,-999,-999.0,-999.0,13,-99.99,,,-99.99,,2013-04-19 19:32:00,
2013-04-19 19:42:00,74.0,20.0,-100.00,North,-999,-999.0,-999.0,13,-99.99,,,-99.99,,2013-04-19 19:42:00,
2013-04-19 19:52:00,74.0,20.0,-100.00,North,-999,-999.0,-999.0,13,-99.99,,,-99.99,,2013-04-19 19:52:00,
2013-04-19 20:01:00,76.0,18.0,-100.00,North,-999,-999.0,-999.0,11,-99.99,,,-99.99,,2013-04-19 20:01:00,
2013-04-19 20:11:00,76.0,18.0,-100.00,North,-999,-999.0,-999.0,11,-99.99,,,-99.99,,2013-04-19 20:11:00,
2013-04-19 20:22:00,76.0,18.0,-100.00,North,-999,-999.0,-999.0,11,-99.99,,,-99.99,,2013-04-19 20:22:00,
2013-04-19 20:31:00,75.0,21.0,-100.00,North,-999,-999.0,-999.0,13,-99.99,,,0.00,,2013-04-19 20:31:00,
2013-04-19 20:42:00,75.0,21.0,-100.00,North,-999,-999.0,-999.0,13,-99.99,,,0.00,,2013-04-19 20:42:00,
2013-04-19 20:52:00,75.0,21.0,-100.00,North,-999,-999.0,-999.0,13,-99.99,,,0.00,,2013-04-19 20:52:00,
2013-04-19 21:01:00,76.0,20.0,-100.00,North,-999,-999.0,-999.0,12,-99.99,,,-99.99,,2013-04-19 21:01:00,
2013-04-19 21:11:00,76.0,20.0,-100.00,North,-999,-999.0,-999.0,12,-99.99,,,-99.99,,2013-04-19 21:11:00,
2013-04-19 21:21:00,76.0,20.0,-100.00,North,-999,-999.0,-999.0,12,-99.99,,,-99.99,,2013-04-19 21:21:00,
2013-04-19 21:32:00,75.0,21.0,-100.00,North,-999,-999.0,-999.0,13,-99.99,,,-99.99,,2013-04-19 21:32:00,
2013-04-19 21:43:00,75.0,21.0,-100.00,North,-999,-999.0,-999.0,13,-99.99,,,-99.99,,2013-04-19 21:43:00,
2013-04-19 21:52:00,75.0,21.0,-100.00,North,-999,-999.0,-999.0,13,-99.99,,,-99.99,,2013-04-19 21:52:00,
2013-04-19 22:02:00,76.0,22.0,-100.00,North,-999,-999.0,-999.0,13,-99.99,,,-99.99,,2013-04-19 22:02:00,
2013-04-19 22:12:00,76.0,22.0,-100.00,North,-999,-999.0,-999.0,13,-99.99,,,-99.99,,2013-04-19 22:12:00,
2013-04-19 22:22:00,76.0,22.0,-100.00,North,-999,-999.0,-999.0,13,-99.99,,,-99.99,,2013-04-19 22:22:00,
2013-04-19 22:33:00,77.0,20.0,-100.00,North,-999,-999.0,-999.0,12,-99.99,,,-99.99,,2013-04-19 22:33:00,
2013-04-19 22:42:00,77.0,20.0,-100.00,North,-999,-999.0,-999.0,12,-99.99,,,-99.99,,2013-04-19 22:42:00,
2013-04-19 22:52:00,77.0,20.0,-100.00,North,-999,-999.0,-999.0,12,-99.99,,,-99.99,,2013-04-19 22:52:00,
2013-04-19 23:02:00,77.0,22.0,-100.00,North,-999,-999.0,-999.0,13,-99.99,,,-99.99,,2013-04-19 23:02:00,
2013-04-19 23:11:00,77.0,22.0,-100.00,North,-999,-999.0,-999.0,13,-99.99,,,-99.99,,2013-04-19 23:11:00,
2013-04-19 23:22:00,77.0,22.0,-100.00,North,-999,-999.0,-999.0,13,-99.99,,,-99.99,,2013-04-19 23:22:00,
2013-04-19 23:31:00,77.0,24.0,-100.00,North,-999,-999.0,-999.0,14,-99.99,,,-99.99,,2013-04-19 23:31:00,
2013-04-19 23:42:00,77.0,24.0,-100.00,North,-999,-999.0,-999.0,14,-99.99,,,-99.99,,2013-04-19 23:42:00,
2013-04-19 23:52:00,77.0,24.0,-100.00,North,-999,-999.0,-999.0,14,-99.99,,,-99.99,,2013-04-19 23:52:00,